TimeMST,TemperatureF,Dew PointF,Humidity,Sea Level PressureIn,VisibilityMPH,Wind Direction,Wind SpeedMPH,Gust SpeedMPH,PrecipitationIn,Events,Conditions,WindDirDegrees,DateUTC
12:55 AM,71.6,60.8,69,30.01,10.0,ESE,6.9,-,N/A,,Mostly Cloudy,120,2013-08-01 07:55:00
1:55 AM,71.6,59.0,64,29.99,10.0,SSE,6.9,-,N/A,,Mostly Cloudy,160,2013-08-01 08:55:00
2:55 AM,71.6,57.2,60,29.98,10.0,SE,5.8,-,N/A,,Overcast,140,2013-08-01 09:55:00
3:55 AM,71.6,57.2,60,29.97,10.0,SE,3.5,-,N/A,,Overcast,140,2013-08-01 10:55:00
4:55 AM,73.4,57.2,57,29.99,10.0,SSE,9.2,-,N/A,,Overcast,160,2013-08-01 11:55:00
5:55 AM,73.4,57.2,57,30.00,10.0,SSE,6.9,-,N/A,,Overcast,150,2013-08-01 12:55:00
6:55 AM,73.4,57.2,57,30.02,10.0,SSE,6.9,-,N/A,,Overcast,150,2013-08-01 13:55:00
7:55 AM,77.0,57.2,50,30.02,10.0,SE,4.6,-,N/A,,Mostly Cloudy,130,2013-08-01 14:55:00
8:55 AM,78.8,57.2,47,30.02,10.0,SSE,4.6,-,N/A,,Mostly Cloudy,150,2013-08-01 15:55:00
9:55 AM,78.8,60.8,54,30.03,10.0,East,6.9,-,N/A,,Mostly Cloudy,90,2013-08-01 16:55:00
10:55 AM,78.8,60.8,54,30.06,10.0,East,15.0,-,N/A,,Overcast,90,2013-08-01 17:55:00
11:06 AM,75.2,60.8,61,30.24,10.0,East,18.4,29.9,N/A,Rain-Thunderstorm,Light Rain Showers,90,2013-08-01 18:06:00
11:26 AM,75.2,62.6,65,30.25,10.0,East,21.9,27.6,N/A,Thunderstorm,Overcast,100,2013-08-01 18:26:00
11:55 AM,71.6,62.6,73,30.09,10.0,East,20.7,-,N/A,Thunderstorm,Overcast,100,2013-08-01 18:55:00
12:17 PM,69.8,62.6,78,30.27,10.0,East,11.5,21.9,N/A,Thunderstorm,Thunderstorm,100,2013-08-01 19:17:00
12:28 PM,69.8,62.6,78,30.26,10.0,SE,13.8,-,N/A,Rain-Thunderstorm,Light Thunderstorms and Rain,130,2013-08-01 19:28:00
12:44 PM,69.8,64.4,83,30.25,10.0,SSE,10.4,-,N/A,Rain,Light Rain,160,2013-08-01 19:44:00
12:55 PM,69.8,62.6,78,30.09,10.0,SSE,9.2,-,N/A,Rain,Light Rain,160,2013-08-01 19:55:00
1:41 PM,71.6,62.6,73,30.24,10.0,SSE,6.9,-,N/A,,Mostly Cloudy,160,2013-08-01 20:41:00
1:55 PM,73.4,60.8,65,30.06,10.0,SE,6.9,-,N/A,,Mostly Cloudy,140,2013-08-01 20:55:00
2:55 PM,73.4,60.8,65,30.00,10.0,East,3.5,-,N/A,,Mostly Cloudy,90,2013-08-01 21:55:00
3:55 PM,80.6,57.2,45,29.97,10.0,NNE,6.9,-,N/A,,Mostly Cloudy,30,2013-08-01 22:55:00
4:56 PM,77.0,59.0,54,29.97,10.0,ENE,4.6,-,N/A,,Clear,70,2013-08-01 23:56:00
5:56 PM,75.9,55.0,48,29.96,10.0,ESE,6.9,-,N/A,,Clear,110,2013-08-02 00:56:00
6:56 PM,75.0,55.0,50,29.98,10.0,SSE,5.8,-,N/A,,Clear,160,2013-08-02 01:56:00
7:56 PM,73.0,59.0,61,29.97,10.0,SSE,3.5,-,N/A,,Clear,150,2013-08-02 02:56:00
8:56 PM,73.0,59.0,61,29.97,10.0,Calm,Calm,-,N/A,,Clear,0,2013-08-02 03:56:00
9:56 PM,71.1,59.0,66,29.99,10.0,West,4.6,-,N/A,,Clear,260,2013-08-02 04:56:00
10:55 PM,73.4,57.2,57,30.21,10.0,Calm,Calm,-,N/A,,Mostly Cloudy,0,2013-08-02 05:55:00
11:55 PM,73.4,57.2,57,29.99,10.0,Calm,Calm,-,N/A,,Mostly Cloudy,0,2013-08-02 06:55:00